TimeCST,TemperatureF,Dew PointF,Humidity,Sea Level PressureIn,VisibilityMPH,Wind Direction,Wind SpeedMPH,Gust SpeedMPH,PrecipitationIn,Events,Conditions,WindDirDegrees,DateUTC
12:12 AM,15.8,12.2,86,29.97,7.0,SSW,9.2,-,N/A,,Scattered Clouds,210,2013-01-02 06:12:00
12:32 AM,15.8,12.2,86,29.95,7.0,SSW,10.4,-,N/A,,Clear,210,2013-01-02 06:32:00
12:53 AM,15.8,14.0,93,29.95,5.0,SW,8.1,-,N/A,,Mostly Cloudy,220,2013-01-02 06:53:00
1:12 AM,15.8,12.2,86,29.94,5.0,SSW,9.2,-,N/A,,Mostly Cloudy,210,2013-01-02 07:12:00
1:32 AM,15.8,12.2,86,29.94,3.0,SSW,11.5,-,N/A,,Mostly Cloudy,210,2013-01-02 07:32:00
1:53 AM,15.8,12.2,86,29.94,2.5,SW,8.1,-,N/A,,Overcast,220,2013-01-02 07:53:00
2:12 AM,15.8,14.0,93,29.94,3.0,SSW,5.8,-,N/A,,Overcast,210,2013-01-02 08:12:00
2:32 AM,15.8,12.2,86,29.94,1.8,SSW,6.9,-,N/A,,Overcast,210,2013-01-02 08:32:00
2:53 AM,15.8,12.2,86,29.94,2.0,Calm,Calm,-,N/A,,Overcast,0,2013-01-02 08:53:00
3:12 AM,15.8,12.2,86,29.93,1.2,Calm,Calm,-,N/A,,Overcast,0,2013-01-02 09:12:00
3:32 AM,15.8,12.2,86,29.93,1.2,SSW,4.6,-,N/A,,Overcast,200,2013-01-02 09:32:00
3:53 AM,15.8,12.2,86,29.92,1.2,SSW,5.8,-,N/A,,Overcast,200,2013-01-02 09:53:00
4:12 AM,14.0,12.2,93,29.91,1.2,SSW,5.8,-,N/A,,Overcast,210,2013-01-02 10:12:00
4:32 AM,14.0,12.2,93,29.91,1.5,Calm,Calm,-,N/A,,Overcast,0,2013-01-02 10:32:00
4:53 AM,14.0,12.2,93,29.91,1.8,Calm,Calm,-,N/A,,Overcast,0,2013-01-02 10:53:00
5:12 AM,14.0,12.2,93,29.91,2.5,SW,3.5,-,N/A,,Overcast,230,2013-01-02 11:12:00
5:32 AM,12.2,10.4,92,29.90,4.0,SW,3.5,-,N/A,,Scattered Clouds,220,2013-01-02 11:32:00
6:12 AM,10.4,8.6,92,29.90,5.0,SW,3.5,-,N/A,,Scattered Clouds,220,2013-01-02 12:12:00
6:32 AM,12.2,10.4,92,29.90,5.0,Calm,Calm,-,N/A,,Mostly Cloudy,0,2013-01-02 12:32:00
6:52 AM,10.4,8.6,92,29.90,5.0,WSW,4.6,-,N/A,,Mostly Cloudy,240,2013-01-02 12:52:00
7:12 AM,10.4,8.6,92,29.91,5.0,Calm,Calm,-,N/A,,Clear,0,2013-01-02 13:12:00
7:33 AM,8.6,6.8,92,29.90,7.0,Calm,Calm,-,N/A,,Clear,0,2013-01-02 13:33:00
7:52 AM,8.6,6.8,92,29.91,7.0,Calm,Calm,-,N/A,,Clear,0,2013-01-02 13:52:00
8:13 AM,10.4,8.6,92,29.91,5.0,Calm,Calm,-,N/A,,Mostly Cloudy,0,2013-01-02 14:13:00
8:33 AM,10.4,8.6,92,29.91,5.0,Calm,Calm,-,N/A,,Overcast,0,2013-01-02 14:33:00
9:12 AM,14.0,12.2,93,29.91,7.0,Calm,Calm,-,N/A,,Overcast,0,2013-01-02 15:12:00
9:33 AM,15.8,12.2,86,29.92,7.0,Calm,Calm,-,N/A,,Overcast,0,2013-01-02 15:33:00
9:52 AM,17.6,15.8,93,29.92,4.0,Calm,Calm,-,N/A,Snow,Light Snow,0,2013-01-02 15:52:00
10:12 AM,19.4,17.6,93,29.92,2.0,Calm,Calm,-,N/A,Snow,Light Snow,0,2013-01-02 16:12:00
10:33 AM,21.2,19.4,93,29.92,2.0,Calm,Calm,-,N/A,Snow,Light Snow,0,2013-01-02 16:33:00
10:52 AM,23.0,21.2,93,29.92,5.0,West,4.6,-,N/A,Snow,Light Snow,270,2013-01-02 16:52:00
11:12 AM,24.8,23.0,93,29.92,7.0,West,4.6,-,N/A,,Overcast,270,2013-01-02 17:12:00
11:33 AM,24.8,23.0,93,29.92,5.0,West,4.6,-,N/A,Snow,Light Snow,270,2013-01-02 17:33:00
11:52 AM,24.8,24.8,100,29.92,7.0,West,6.9,-,N/A,,Overcast,270,2013-01-02 17:52:00
12:12 PM,26.6,24.8,93,29.91,7.0,West,9.2,-,N/A,,Overcast,270,2013-01-02 18:12:00
12:33 PM,26.6,26.6,100,29.91,7.0,West,10.4,-,N/A,,Overcast,280,2013-01-02 18:33:00
12:52 PM,26.6,26.6,100,29.91,7.0,West,9.2,-,N/A,,Overcast,280,2013-01-02 18:52:00
1:12 PM,26.6,26.6,100,29.91,3.0,West,11.5,-,N/A,,Overcast,280,2013-01-02 19:12:00
1:33 PM,28.4,26.6,93,29.92,5.0,West,5.8,-,N/A,,Overcast,280,2013-01-02 19:33:00
1:52 PM,28.4,26.6,93,29.92,10.0,West,6.9,-,N/A,,Overcast,280,2013-01-02 19:52:00
2:12 PM,28.4,26.6,93,29.92,10.0,WNW,9.2,-,N/A,,Overcast,290,2013-01-02 20:12:00
2:32 PM,30.2,26.6,86,29.93,10.0,West,8.1,-,N/A,,Overcast,280,2013-01-02 20:32:00
2:52 PM,30.2,26.6,86,29.94,10.0,West,9.2,-,N/A,,Overcast,270,2013-01-02 20:52:00
3:12 PM,30.2,26.6,86,29.94,10.0,West,8.1,-,N/A,,Overcast,280,2013-01-02 21:12:00
3:32 PM,30.2,26.6,86,29.94,10.0,WNW,9.2,-,N/A,,Overcast,290,2013-01-02 21:32:00
3:53 PM,30.2,26.6,86,29.95,10.0,West,5.8,-,N/A,,Overcast,280,2013-01-02 21:53:00
4:12 PM,30.2,26.6,86,29.96,10.0,WNW,11.5,-,N/A,,Overcast,290,2013-01-02 22:12:00
4:32 PM,26.6,24.8,93,29.97,3.0,NW,17.3,28.8,N/A,,Overcast,320,2013-01-02 22:32:00
4:53 PM,26.6,24.8,93,29.98,10.0,NW,16.1,-,N/A,,Overcast,320,2013-01-02 22:53:00
5:12 PM,26.6,21.2,80,29.99,10.0,NW,9.2,-,N/A,,Scattered Clouds,310,2013-01-02 23:12:00
5:32 PM,24.8,19.4,80,30.00,10.0,WNW,6.9,-,N/A,,Clear,300,2013-01-02 23:32:00
5:53 PM,23.0,19.4,86,30.01,10.0,WNW,8.1,-,N/A,,Clear,300,2013-01-02 23:53:00
6:13 PM,23.0,19.4,86,30.02,10.0,WNW,8.1,-,N/A,,Mostly Cloudy,300,2013-01-03 00:13:00
6:32 PM,24.8,19.4,80,30.02,10.0,NW,11.5,-,N/A,,Overcast,310,2013-01-03 00:32:00
6:53 PM,24.8,19.4,80,30.03,10.0,NW,8.1,-,N/A,,Overcast,320,2013-01-03 00:53:00
7:12 PM,24.8,19.4,80,30.04,10.0,WNW,5.8,-,N/A,,Overcast,300,2013-01-03 01:12:00
7:32 PM,24.8,19.4,80,30.04,10.0,Calm,Calm,-,N/A,,Overcast,0,2013-01-03 01:32:00
7:53 PM,24.8,19.4,80,30.04,10.0,WNW,5.8,-,N/A,,Overcast,300,2013-01-03 01:53:00
8:13 PM,24.8,19.4,80,30.05,10.0,Calm,Calm,-,N/A,,Overcast,0,2013-01-03 02:13:00
8:32 PM,24.8,21.2,86,30.05,10.0,Calm,Calm,-,N/A,,Overcast,0,2013-01-03 02:32:00
8:53 PM,24.8,21.2,86,30.05,10.0,Calm,Calm,-,N/A,Snow,Light Snow,0,2013-01-03 02:53:00
9:12 PM,24.8,21.2,86,30.06,10.0,West,5.8,-,N/A,Snow,Light Snow,280,2013-01-03 03:12:00
9:32 PM,24.8,21.2,86,30.07,10.0,WNW,8.1,-,N/A,,Overcast,300,2013-01-03 03:32:00
9:53 PM,24.8,21.2,86,30.07,10.0,WNW,9.2,-,N/A,Snow,Light Snow,300,2013-01-03 03:53:00
10:12 PM,24.8,21.2,86,30.08,10.0,NW,13.8,-,N/A,,Overcast,310,2013-01-03 04:12:00
10:32 PM,23.0,21.2,93,30.09,5.0,NW,18.4,24.2,N/A,Snow,Light Snow,320,2013-01-03 04:32:00
10:53 PM,21.2,17.6,86,30.10,4.0,NW,18.4,24.2,N/A,,Overcast,320,2013-01-03 04:53:00
11:12 PM,17.6,15.8,93,30.11,4.0,NNW,19.6,27.6,N/A,,Mostly Cloudy,330,2013-01-03 05:12:00
11:32 PM,15.8,12.2,86,30.11,4.0,NW,19.6,26.5,N/A,,Overcast,320,2013-01-03 05:32:00
11:53 PM,15.8,12.2,86,30.12,10.0,NW,16.1,-,N/A,,Scattered Clouds,320,2013-01-03 05:53:00